Location: Unspecified
(40.7945°N, 111.1337°W)
Time: 11:46:14
(UTC-06:00)

Tiros 1 - All Passes

Search period start: 19 June 2019 00:00
Search period end: 29 June 2019 00:00
Orbit: 631 x 664 km, 48.4° (Epoch: 18 June)

Date Brightness Start Highest point End Pass type
(mag) Time Alt. Az. Time Alt. Az. Time Alt. Az.
19 Jun - 00:17:32 10° S 00:20:52 19° SE 00:24:10 10° E visible
19 Jun - 01:57:55 10° WSW 02:02:35 89° WNW 02:07:15 10° ENE visible
19 Jun - 03:40:54 10° WNW 03:45:11 36° NNW 03:49:27 10° NE visible
19 Jun - 05:23:57 10° WNW 05:28:11 34° N 05:32:24 10° ENE daylight
19 Jun - 07:06:11 10° WNW 07:10:50 81° NNE 07:15:26 10° ESE daylight
19 Jun - 08:49:06 10° W 08:52:37 22° SW 08:56:08 10° S daylight
20 Jun - 00:42:14 10° SSW 00:46:38 42° SE 00:51:01 10° ENE visible
20 Jun - 02:24:14 10° W 02:28:48 52° NNW 02:33:20 10° NE visible
20 Jun - 04:07:31 10° WNW 04:11:40 31° N 04:15:48 10° ENE visible
20 Jun - 05:50:08 10° NW 05:54:35 46° NNE 05:59:02 10° E daylight
20 Jun - 07:32:23 10° WNW 07:36:51 51° SW 07:41:18 10° SE daylight
20 Jun - 23:27:47 10° S 23:30:55 18° SE 23:34:02 10° E visible
21 Jun - 01:07:55 10° WSW 01:12:37 85° SE 01:17:16 10° ENE visible
21 Jun - 02:50:51 10° W 02:55:10 36° NNW 02:59:28 10° NE visible
21 Jun - 04:33:56 10° WNW 04:38:10 34° N 04:42:22 10° ENE visible
21 Jun - 06:16:12 10° WNW 06:20:50 77° NNE 06:25:26 10° ESE daylight
21 Jun - 07:59:00 10° W 08:02:40 23° SW 08:06:19 10° S daylight
21 Jun - 23:52:19 10° SSW 23:56:41 39° SE 00:01:00 10° ENE visible
22 Jun - 01:34:12 10° W 01:38:47 55° NNW 01:43:21 10° NE visible
22 Jun - 03:17:28 10° WNW 03:21:38 31° N 03:25:47 10° ENE visible
22 Jun - 05:00:08 10° NW 05:04:35 44° NNE 05:09:00 10° E visible
22 Jun - 06:42:22 10° WNW 06:46:53 55° SW 06:51:23 10° SE daylight
22 Jun - 22:38:03 10° S 22:40:58 16° SE 22:43:53 10° E visible
23 Jun - 00:17:56 10° SW 00:22:38 80° SSE 00:27:17 10° ENE visible
23 Jun - 02:00:47 10° W 02:05:09 38° NNW 02:09:29 10° NE visible
23 Jun - 03:43:55 10° WNW 03:48:09 33° N 03:52:20 10° ENE visible
23 Jun - 05:26:13 10° WNW 05:30:51 72° NNE 05:35:26 10° ESE daylight
23 Jun - 07:08:56 10° W 07:12:43 25° SW 07:16:30 10° SSE daylight
23 Jun - 23:02:24 10° SSW 23:06:43 36° SE 23:10:58 10° ENE visible
24 Jun - 00:44:09 10° WSW 00:48:47 58° NNW 00:53:23 10° ENE visible
24 Jun - 02:27:25 10° WNW 02:31:37 32° N 02:35:46 10° ENE visible
24 Jun - 04:10:08 10° NW 04:14:34 43° NNE 04:18:58 10° E visible
24 Jun - 05:52:22 10° WNW 05:56:55 60° SW 06:01:26 10° SE daylight
24 Jun - 07:37:15 10° WSW 07:38:22 11° SW 07:39:29 10° SW daylight
24 Jun - 21:48:21 10° SSE 21:51:01 15° SE 21:53:42 10° E visible
24 Jun - 23:27:56 10° SW 23:32:38 75° SSE 23:37:18 10° ENE visible
25 Jun - 01:10:43 10° W 01:15:08 39° NNW 01:19:29 10° NE visible
25 Jun - 02:53:53 10° WNW 02:58:07 33° N 03:02:18 10° ENE visible
25 Jun - 04:36:13 10° WNW 04:40:51 68° NNE 04:45:26 10° ESE visible
25 Jun - 06:18:52 10° WNW 06:22:46 28° SW 06:26:40 10° SSE daylight
25 Jun - 22:12:30 10° SSW 22:16:44 33° SE 22:20:57 10° ENE visible
25 Jun - 23:54:07 10° WSW 23:58:47 61° NNW 00:03:24 10° ENE visible
26 Jun - 01:37:22 10° WNW 01:41:35 32° N 01:45:46 10° ENE visible
26 Jun - 03:20:08 10° NW 03:24:33 41° NNE 03:28:56 10° E visible
26 Jun - 05:02:21 10° WNW 05:06:57 64° SW 05:11:30 10° SE visible
26 Jun - 06:46:42 10° WSW 06:48:26 12° SW 06:50:10 10° SSW daylight
26 Jun - 20:58:41 10° SSE 21:01:05 14° SE 21:03:28 10° E daylight
26 Jun - 22:37:57 10° SW 22:42:39 70° SE 22:47:19 10° ENE visible
27 Jun - 00:20:39 10° W 00:25:05 40° NNW 00:29:30 10° NE visible
27 Jun - 02:03:52 10° WNW 02:08:05 32° N 02:12:16 10° ENE visible
27 Jun - 03:46:14 10° WNW 03:50:51 64° NNE 03:55:26 10° ESE visible
27 Jun - 05:28:48 10° WNW 05:32:49 30° SW 05:36:50 10° SSE daylight
27 Jun - 21:22:37 10° SSW 21:26:46 31° SE 21:30:54 10° ENE daylight
27 Jun - 23:04:04 10° WSW 23:08:46 65° NNW 23:13:26 10° ENE visible
28 Jun - 00:47:18 10° WNW 00:51:33 33° N 00:55:45 10° ENE visible
28 Jun - 02:30:08 10° NW 02:34:32 40° NNE 02:38:54 10° E visible
28 Jun - 04:12:21 10° WNW 04:16:58 69° SW 04:21:33 10° SE visible
28 Jun - 05:56:20 10° WSW 05:58:30 13° SW 06:00:40 10° SSW daylight
28 Jun - 20:09:06 10° SSE 20:11:08 13° SE 20:13:10 10° ESE daylight
28 Jun - 21:47:58 10° SW 21:52:40 65° SE 21:57:20 10° ENE visible
28 Jun - 23:30:35 10° W 23:35:04 42° NNW 23:39:31 10° NE visible
